Syston, United Kingdom
Current Conditions -  °F | °C
As of 4:20 AM on Friday 31 Oct 2014 (Local Time) from EGNX Reporting Station
Few Clouds Few Clouds  
Wind Chill: 57°   Ceiling: Unl
Heat Index: 57°   Visibility: 4mi
Dew Point: 55°   Wind: 13mph
Humidity: 94%   Direction: 180°S
Pressure: 29.97"   Gusts: NA
Location:  52.68°N, 1.07°W
Report Text: EGNX 310420Z 18011KT 7000 FEW012 14/13 Q1015
Loading
Personal Weather Stations






























Interactive Weather Map
Tropical Storm Tracking
New forecast layout! Learn more

10-Day Weather Forecast

Advertisements
Track Severe Weather on mobile